Multibeam Report for KNOX09RR


Ship Name: Roger Revelle
Chief Scientist: Ward, Bess
Princeton University
Source Organization: Rolling Deck to Repository
Start Date: 2007-09-20
End Date: 2007-10-18


View ISO Metadata

Visit the full NCEI Bathymetry Viewer


Multibeam Bathymetry

Cruise Details

Project: Anammox and Denitrification in the ODZ of the Arabian Sea
Instrument: Kongsberg EM120

Data Quality

Number of Files: 558
Number of Records: 73188
BATHYMETRY DATA Quantity Percentage
Number of Beams 13978908 100%
Number of Good Beams 13470211 96.36%
Number of Zero Beams 508697 3.64%
Number of Flagged Beams 0 0%
AMPLITUDE DATA Quantity Percentage
Number of Beams 13978908 100%
Number of Good Beams 13470211 96.36%
Number of Zero Beams 508697 3.64%
Number of Flagged Beams 0 0%
SIDESCAN DATA Quantity Percentage
Number of Pixels 74944512 100%
Number of Good Pixels 43988627 58.69%
Number of Zero Pixels 0 0%
Number of Flagged Pixels 30955885 41.31%

Navigation Totals

Total Time: 536.6316 hours
Total Track Length: 2295.5195 km
Average Speed: 4.278 km/hr (2.3099 knots)

Cruise Bounds

Northern Extent: 19.631271
Southern Extent: 10.949983
Western Extent: 63.787098
Eastern Extent: 68.35458

Limits

Minimum Sonar Depth 0 Maximum Sonar Depth 7.38
Minimum Altitude 0 Maximum Altitude 5215.4399
Minimum Depth 1029.84 Maximum Depth 6290.9302
Minimum Amplitude 0 Maximum Amplitude 63.5
Minimum Sidescan 0 Maximum Sidescan 23.88

File Information

Full Resolution Bathymetry as collected (raw): 555

Files File Size Description
0001_20070921_175655_raw.all.mb56.gz 1.03MB Simrad multibeam vendor format
0001_20070930_082832_raw.all.mb56.gz 0.96MB Simrad multibeam vendor format
0002_20070921_181609_raw.all.mb56.gz 3.32MB Simrad multibeam vendor format
0002_20070930_084814_raw.all.mb56.gz 2.90MB Simrad multibeam vendor format
0003_20070921_191609_raw.all.mb56.gz 3.36MB Simrad multibeam vendor format
0003_20070930_094815_raw.all.mb56.gz 1.25MB Simrad multibeam vendor format
0004_20070921_201609_raw.all.mb56.gz 3.37MB Simrad multibeam vendor format
0005_20070921_211610_raw.all.mb56.gz 3.27MB Simrad multibeam vendor format
0006_20070921_221610_raw.all.mb56.gz 3.22MB Simrad multibeam vendor format
0007_20070921_231611_raw.all.mb56.gz 3.25MB Simrad multibeam vendor format
0008_20070922_001611_raw.all.mb56.gz 3.36MB Simrad multibeam vendor format
0009_20070922_011612_raw.all.mb56.gz 3.24MB Simrad multibeam vendor format
0010_20070922_021612_raw.all.mb56.gz 3.15MB Simrad multibeam vendor format
0011_20070922_031612_raw.all.mb56.gz 3.09MB Simrad multibeam vendor format
0012_20070922_041613_raw.all.mb56.gz 3.10MB Simrad multibeam vendor format
0013_20070922_122718_raw.all.mb56.gz 3.20MB Simrad multibeam vendor format
0014_20070922_132719_raw.all.mb56.gz 3.22MB Simrad multibeam vendor format
0015_20070922_142719_raw.all.mb56.gz 3.21MB Simrad multibeam vendor format
0016_20070922_152719_raw.all.mb56.gz 3.21MB Simrad multibeam vendor format
0017_20070922_162720_raw.all.mb56.gz 3.33MB Simrad multibeam vendor format
0018_20070922_172720_raw.all.mb56.gz 3.21MB Simrad multibeam vendor format
0019_20070922_182721_raw.all.mb56.gz 3.24MB Simrad multibeam vendor format
0020_20070922_192721_raw.all.mb56.gz 3.25MB Simrad multibeam vendor format
0021_20070922_202722_raw.all.mb56.gz 3.27MB Simrad multibeam vendor format
0022_20070922_212722_raw.all.mb56.gz 3.26MB Simrad multibeam vendor format
0023_20070922_222723_raw.all.mb56.gz 3.30MB Simrad multibeam vendor format
0024_20070922_232723_raw.all.mb56.gz 3.32MB Simrad multibeam vendor format
0025_20070923_002723_raw.all.mb56.gz 3.30MB Simrad multibeam vendor format
0026_20070923_012724_raw.all.mb56.gz 3.26MB Simrad multibeam vendor format
0027_20070923_022724_raw.all.mb56.gz 181.4KB Simrad multibeam vendor format
0028_20070923_061358_raw.all.mb56.gz 3.21MB Simrad multibeam vendor format
0029_20070923_071358_raw.all.mb56.gz 3.29MB Simrad multibeam vendor format
0030_20070923_081359_raw.all.mb56.gz 3.30MB Simrad multibeam vendor format
0031_20070923_091359_raw.all.mb56.gz 2.18MB Simrad multibeam vendor format
0032_20070923_124559_raw.all.mb56.gz 69.6KB Simrad multibeam vendor format
0033_20070923_124730_raw.all.mb56.gz 3.25MB Simrad multibeam vendor format
0034_20070923_134731_raw.all.mb56.gz 3.33MB Simrad multibeam vendor format
0035_20070923_144731_raw.all.mb56.gz 3.31MB Simrad multibeam vendor format
0036_20070923_154732_raw.all.mb56.gz 70.4KB Simrad multibeam vendor format
0037_20070924_101614_raw.all.mb56.gz 0.99MB Simrad multibeam vendor format
0038_20070924_103400_raw.all.mb56.gz 3.38MB Simrad multibeam vendor format
0039_20070924_113401_raw.all.mb56.gz 3.41MB Simrad multibeam vendor format
0040_20070924_123401_raw.all.mb56.gz 3.40MB Simrad multibeam vendor format
0041_20070924_133401_raw.all.mb56.gz 1.45MB Simrad multibeam vendor format
0042_20070925_011023_raw.all.mb56.gz 3.60MB Simrad multibeam vendor format
0043_20070925_021023_raw.all.mb56.gz 3.57MB Simrad multibeam vendor format
0044_20070925_031024_raw.all.mb56.gz 3.59MB Simrad multibeam vendor format
0045_20070925_041024_raw.all.mb56.gz 3.53MB Simrad multibeam vendor format
0046_20070925_051024_raw.all.mb56.gz 3.55MB Simrad multibeam vendor format
0047_20070925_061025_raw.all.mb56.gz 3.50MB Simrad multibeam vendor format
0048_20070925_071025_raw.all.mb56.gz 3.51MB Simrad multibeam vendor format
0049_20070925_081026_raw.all.mb56.gz 3.55MB Simrad multibeam vendor format
0050_20070925_091026_raw.all.mb56.gz 3.58MB Simrad multibeam vendor format
0051_20070925_101027_raw.all.mb56.gz 3.48MB Simrad multibeam vendor format
0052_20070925_111027_raw.all.mb56.gz 3.43MB Simrad multibeam vendor format
0053_20070925_121027_raw.all.mb56.gz 3.71MB Simrad multibeam vendor format
0054_20070925_131028_raw.all.mb56.gz 3.54MB Simrad multibeam vendor format
0055_20070925_141028_raw.all.mb56.gz 3.53MB Simrad multibeam vendor format
0056_20070925_151029_raw.all.mb56.gz 3.56MB Simrad multibeam vendor format
0057_20070925_161029_raw.all.mb56.gz 3.56MB Simrad multibeam vendor format
0058_20070925_171030_raw.all.mb56.gz 3.66MB Simrad multibeam vendor format
0059_20070925_181030_raw.all.mb56.gz 3.57MB Simrad multibeam vendor format
0060_20070925_191030_raw.all.mb56.gz 3.54MB Simrad multibeam vendor format
0061_20070925_201031_raw.all.mb56.gz 3.56MB Simrad multibeam vendor format
0062_20070925_211031_raw.all.mb56.gz 3.54MB Simrad multibeam vendor format
0063_20070925_221032_raw.all.mb56.gz 3.56MB Simrad multibeam vendor format
0064_20070925_231032_raw.all.mb56.gz 3.56MB Simrad multibeam vendor format
0065_20070926_001033_raw.all.mb56.gz 3.55MB Simrad multibeam vendor format
0066_20070926_011033_raw.all.mb56.gz 3.52MB Simrad multibeam vendor format
0067_20070926_021033_raw.all.mb56.gz 3.52MB Simrad multibeam vendor format
0068_20070926_031034_raw.all.mb56.gz 3.52MB Simrad multibeam vendor format
0069_20070926_041034_raw.all.mb56.gz 3.53MB Simrad multibeam vendor format
0070_20070926_051037_raw.all.mb56.gz 3.55MB Simrad multibeam vendor format
0071_20070926_061037_raw.all.mb56.gz 3.56MB Simrad multibeam vendor format
0072_20070926_071038_raw.all.mb56.gz 3.48MB Simrad multibeam vendor format
0073_20070926_081038_raw.all.mb56.gz 3.40MB Simrad multibeam vendor format
0074_20070926_091038_raw.all.mb56.gz 3.38MB Simrad multibeam vendor format
0075_20070926_101039_raw.all.mb56.gz 3.37MB Simrad multibeam vendor format
0076_20070926_111039_raw.all.mb56.gz 3.45MB Simrad multibeam vendor format
0077_20070926_121040_raw.all.mb56.gz 3.39MB Simrad multibeam vendor format
0078_20070926_131040_raw.all.mb56.gz 3.38MB Simrad multibeam vendor format
0079_20070926_141040_raw.all.mb56.gz 3.36MB Simrad multibeam vendor format
0080_20070926_151041_raw.all.mb56.gz 3.38MB Simrad multibeam vendor format
0081_20070926_161041_raw.all.mb56.gz 3.32MB Simrad multibeam vendor format
0082_20070926_171042_raw.all.mb56.gz 3.30MB Simrad multibeam vendor format
0083_20070926_181042_raw.all.mb56.gz 3.34MB Simrad multibeam vendor format
0084_20070926_191042_raw.all.mb56.gz 3.40MB Simrad multibeam vendor format
0085_20070926_201043_raw.all.mb56.gz 3.37MB Simrad multibeam vendor format
0086_20070926_211043_raw.all.mb56.gz 3.43MB Simrad multibeam vendor format
0087_20070926_221044_raw.all.mb56.gz 3.49MB Simrad multibeam vendor format
0088_20070926_231044_raw.all.mb56.gz 3.53MB Simrad multibeam vendor format
0089_20070927_001045_raw.all.mb56.gz 3.54MB Simrad multibeam vendor format
0090_20070927_011045_raw.all.mb56.gz 3.51MB Simrad multibeam vendor format
0091_20070927_021045_raw.all.mb56.gz 3.38MB Simrad multibeam vendor format
0092_20070927_031046_raw.all.mb56.gz 3.29MB Simrad multibeam vendor format
0093_20070927_041046_raw.all.mb56.gz 3.29MB Simrad multibeam vendor format
0094_20070927_051047_raw.all.mb56.gz 3.36MB Simrad multibeam vendor format
0095_20070927_061047_raw.all.mb56.gz 3.54MB Simrad multibeam vendor format
0096_20070927_071048_raw.all.mb56.gz 3.55MB Simrad multibeam vendor format
0097_20070927_081048_raw.all.mb56.gz 3.55MB Simrad multibeam vendor format
0098_20070927_091048_raw.all.mb56.gz 3.57MB Simrad multibeam vendor format
0099_20070927_101049_raw.all.mb56.gz 3.55MB Simrad multibeam vendor format
0100_20070927_111049_raw.all.mb56.gz 3.59MB Simrad multibeam vendor format
0101_20070927_121050_raw.all.mb56.gz 3.33MB Simrad multibeam vendor format
0102_20070927_131050_raw.all.mb56.gz 1.25MB Simrad multibeam vendor format
0103_20070927_151149_raw.all.mb56.gz 3.37MB Simrad multibeam vendor format
0104_20070927_161150_raw.all.mb56.gz 3.60MB Simrad multibeam vendor format
0105_20070927_171150_raw.all.mb56.gz 3.59MB Simrad multibeam vendor format
0106_20070927_181150_raw.all.mb56.gz 3.56MB Simrad multibeam vendor format
0107_20070927_191151_raw.all.mb56.gz 3.56MB Simrad multibeam vendor format
0108_20070927_201151_raw.all.mb56.gz 3.50MB Simrad multibeam vendor format
0109_20070927_211152_raw.all.mb56.gz 3.44MB Simrad multibeam vendor format
0110_20070927_221152_raw.all.mb56.gz 3.27MB Simrad multibeam vendor format
0111_20070927_231153_raw.all.mb56.gz 3.21MB Simrad multibeam vendor format
0112_20070928_001153_raw.all.mb56.gz 3.22MB Simrad multibeam vendor format
0113_20070928_011153_raw.all.mb56.gz 3.26MB Simrad multibeam vendor format
0114_20070928_021154_raw.all.mb56.gz 363.0KB Simrad multibeam vendor format
0115_20070928_021809_raw.all.mb56.gz 3.40MB Simrad multibeam vendor format
0116_20070928_031809_raw.all.mb56.gz 3.43MB Simrad multibeam vendor format
0117_20070928_041810_raw.all.mb56.gz 3.42MB Simrad multibeam vendor format
0118_20070928_051810_raw.all.mb56.gz 3.39MB Simrad multibeam vendor format
0119_20070928_061811_raw.all.mb56.gz 3.37MB Simrad multibeam vendor format
0120_20070928_071811_raw.all.mb56.gz 3.34MB Simrad multibeam vendor format
0121_20070928_081811_raw.all.mb56.gz 3.17MB Simrad multibeam vendor format
0122_20070928_091812_raw.all.mb56.gz 165.4KB Simrad multibeam vendor format
0123_20070928_114057_raw.all.mb56.gz 3.11MB Simrad multibeam vendor format
0124_20070928_124057_raw.all.mb56.gz 3.11MB Simrad multibeam vendor format
0125_20070928_134058_raw.all.mb56.gz 3.10MB Simrad multibeam vendor format
0126_20070928_144058_raw.all.mb56.gz 3.11MB Simrad multibeam vendor format
0127_20070928_154058_raw.all.mb56.gz 3.10MB Simrad multibeam vendor format
0128_20070928_164059_raw.all.mb56.gz 3.08MB Simrad multibeam vendor format
0129_20070928_174059_raw.all.mb56.gz 3.10MB Simrad multibeam vendor format
0130_20070928_184100_raw.all.mb56.gz 3.09MB Simrad multibeam vendor format
0131_20070928_194100_raw.all.mb56.gz 3.08MB Simrad multibeam vendor format
0132_20070928_204101_raw.all.mb56.gz 3.10MB Simrad multibeam vendor format
0133_20070928_214101_raw.all.mb56.gz 3.06MB Simrad multibeam vendor format
0134_20070928_224102_raw.all.mb56.gz 3.07MB Simrad multibeam vendor format
0135_20070928_234102_raw.all.mb56.gz 3.24MB Simrad multibeam vendor format
0136_20070929_004102_raw.all.mb56.gz 3.04MB Simrad multibeam vendor format
0137_20070929_014103_raw.all.mb56.gz 3.26MB Simrad multibeam vendor format
0138_20070929_024103_raw.all.mb56.gz 3.04MB Simrad multibeam vendor format
0139_20070929_034104_raw.all.mb56.gz 3.04MB Simrad multibeam vendor format
0140_20070929_044104_raw.all.mb56.gz 2.99MB Simrad multibeam vendor format
0141_20070929_054105_raw.all.mb56.gz 3.00MB Simrad multibeam vendor format
0142_20070929_064105_raw.all.mb56.gz 3.03MB Simrad multibeam vendor format
0143_20070929_074105_raw.all.mb56.gz 461.0KB Simrad multibeam vendor format
0144_20070929_075051_raw.all.mb56.gz 2.96MB Simrad multibeam vendor format
0145_20070929_085052_raw.all.mb56.gz 2.97MB Simrad multibeam vendor format
0146_20070929_095052_raw.all.mb56.gz 2.96MB Simrad multibeam vendor format
0147_20070929_105053_raw.all.mb56.gz 2.96MB Simrad multibeam vendor format
0148_20070929_115053_raw.all.mb56.gz 2.94MB Simrad multibeam vendor format
0149_20070929_125054_raw.all.mb56.gz 2.96MB Simrad multibeam vendor format
0150_20070929_135054_raw.all.mb56.gz 2.96MB Simrad multibeam vendor format
0151_20070929_145054_raw.all.mb56.gz 2.96MB Simrad multibeam vendor format
0152_20070929_155055_raw.all.mb56.gz 2.93MB Simrad multibeam vendor format
0153_20070929_165055_raw.all.mb56.gz 2.95MB Simrad multibeam vendor format
0154_20070929_175056_raw.all.mb56.gz 3.08MB Simrad multibeam vendor format
0155_20070929_185056_raw.all.mb56.gz 2.97MB Simrad multibeam vendor format
0156_20070929_195057_raw.all.mb56.gz 3.00MB Simrad multibeam vendor format
0157_20070929_205057_raw.all.mb56.gz 2.93MB Simrad multibeam vendor format
0158_20070929_215057_raw.all.mb56.gz 2.98MB Simrad multibeam vendor format
0159_20070929_225058_raw.all.mb56.gz 3.10MB Simrad multibeam vendor format
0160_20070929_235058_raw.all.mb56.gz 3.03MB Simrad multibeam vendor format
0161_20070930_005059_raw.all.mb56.gz 3.08MB Simrad multibeam vendor format
0162_20070930_015059_raw.all.mb56.gz 3.05MB Simrad multibeam vendor format
0163_20070930_025100_raw.all.mb56.gz 1.78MB Simrad multibeam vendor format
0164_20070930_032346_raw.all.mb56.gz 3.09MB Simrad multibeam vendor format
0165_20070930_042346_raw.all.mb56.gz 3.25MB Simrad multibeam vendor format
0166_20070930_052347_raw.all.mb56.gz 3.18MB Simrad multibeam vendor format
0167_20070930_062347_raw.all.mb56.gz 2.54MB Simrad multibeam vendor format
0168_20070930_101355_raw.all.mb56.gz 2.93MB Simrad multibeam vendor format
0169_20070930_111355_raw.all.mb56.gz 3.24MB Simrad multibeam vendor format
0170_20070930_121355_raw.all.mb56.gz 3.08MB Simrad multibeam vendor format
0171_20070930_131356_raw.all.mb56.gz 2.96MB Simrad multibeam vendor format
0172_20070930_141356_raw.all.mb56.gz 2.95MB Simrad multibeam vendor format
0173_20070930_151357_raw.all.mb56.gz 2.99MB Simrad multibeam vendor format
0174_20070930_161357_raw.all.mb56.gz 3.04MB Simrad multibeam vendor format
0175_20070930_171358_raw.all.mb56.gz 3.03MB Simrad multibeam vendor format
0176_20070930_181358_raw.all.mb56.gz 3.14MB Simrad multibeam vendor format
0177_20070930_191359_raw.all.mb56.gz 3.08MB Simrad multibeam vendor format
0178_20070930_201359_raw.all.mb56.gz 3.03MB Simrad multibeam vendor format
0179_20070930_211359_raw.all.mb56.gz 3.03MB Simrad multibeam vendor format
0180_20070930_221400_raw.all.mb56.gz 3.02MB Simrad multibeam vendor format
0181_20070930_231400_raw.all.mb56.gz 3.03MB Simrad multibeam vendor format
0182_20071001_001401_raw.all.mb56.gz 3.04MB Simrad multibeam vendor format
0183_20071001_011401_raw.all.mb56.gz 3.12MB Simrad multibeam vendor format
0184_20071001_021402_raw.all.mb56.gz 3.01MB Simrad multibeam vendor format
0185_20071001_031402_raw.all.mb56.gz 3.00MB Simrad multibeam vendor format
0186_20071001_041402_raw.all.mb56.gz 3.07MB Simrad multibeam vendor format
0187_20071001_051403_raw.all.mb56.gz 3.06MB Simrad multibeam vendor format
0188_20071001_061403_raw.all.mb56.gz 3.02MB Simrad multibeam vendor format
0189_20071001_071404_raw.all.mb56.gz 3.02MB Simrad multibeam vendor format
0190_20071001_081404_raw.all.mb56.gz 3.01MB Simrad multibeam vendor format
0191_20071001_091405_raw.all.mb56.gz 3.00MB Simrad multibeam vendor format
0192_20071001_101405_raw.all.mb56.gz 2.99MB Simrad multibeam vendor format
0193_20071001_111406_raw.all.mb56.gz 2.99MB Simrad multibeam vendor format
0194_20071001_121406_raw.all.mb56.gz 2.98MB Simrad multibeam vendor format
0195_20071001_131406_raw.all.mb56.gz 2.98MB Simrad multibeam vendor format
0196_20071001_141407_raw.all.mb56.gz 3.00MB Simrad multibeam vendor format
0197_20071001_151405_raw.all.mb56.gz 3.01MB Simrad multibeam vendor format
0198_20071001_161405_raw.all.mb56.gz 3.10MB Simrad multibeam vendor format
0199_20071001_171405_raw.all.mb56.gz 3.06MB Simrad multibeam vendor format
0200_20071001_181406_raw.all.mb56.gz 3.00MB Simrad multibeam vendor format
0201_20071001_191406_raw.all.mb56.gz 2.94MB Simrad multibeam vendor format
0202_20071001_201407_raw.all.mb56.gz 2.92MB Simrad multibeam vendor format
0203_20071001_211407_raw.all.mb56.gz 2.93MB Simrad multibeam vendor format
0204_20071001_221408_raw.all.mb56.gz 2.92MB Simrad multibeam vendor format
0205_20071001_231408_raw.all.mb56.gz 3.05MB Simrad multibeam vendor format
0206_20071002_001409_raw.all.mb56.gz 3.00MB Simrad multibeam vendor format
0207_20071002_011409_raw.all.mb56.gz 2.98MB Simrad multibeam vendor format
0208_20071002_021410_raw.all.mb56.gz 2.96MB Simrad multibeam vendor format
0209_20071002_031410_raw.all.mb56.gz 3.01MB Simrad multibeam vendor format
0210_20071002_041411_raw.all.mb56.gz 3.02MB Simrad multibeam vendor format
0211_20071002_051411_raw.all.mb56.gz 3.01MB Simrad multibeam vendor format
0212_20071002_061411_raw.all.mb56.gz 3.02MB Simrad multibeam vendor format
0213_20071002_071412_raw.all.mb56.gz 3.02MB Simrad multibeam vendor format
0214_20071002_081412_raw.all.mb56.gz 2.98MB Simrad multibeam vendor format
0215_20071002_091413_raw.all.mb56.gz 2.98MB Simrad multibeam vendor format
0216_20071002_101413_raw.all.mb56.gz 3.06MB Simrad multibeam vendor format
0217_20071002_111414_raw.all.mb56.gz 2.96MB Simrad multibeam vendor format
0218_20071002_121414_raw.all.mb56.gz 2.99MB Simrad multibeam vendor format
0219_20071002_131415_raw.all.mb56.gz 3.00MB Simrad multibeam vendor format
0220_20071002_141415_raw.all.mb56.gz 3.01MB Simrad multibeam vendor format
0221_20071002_151416_raw.all.mb56.gz 2.99MB Simrad multibeam vendor format
0222_20071002_161418_raw.all.mb56.gz 3.01MB Simrad multibeam vendor format
0223_20071002_171418_raw.all.mb56.gz 3.05MB Simrad multibeam vendor format
0224_20071002_181419_raw.all.mb56.gz 3.06MB Simrad multibeam vendor format
0225_20071002_191419_raw.all.mb56.gz 3.09MB Simrad multibeam vendor format
0226_20071002_201420_raw.all.mb56.gz 3.02MB Simrad multibeam vendor format
0227_20071002_211420_raw.all.mb56.gz 3.05MB Simrad multibeam vendor format
0228_20071002_221420_raw.all.mb56.gz 3.06MB Simrad multibeam vendor format
0229_20071002_231421_raw.all.mb56.gz 3.02MB Simrad multibeam vendor format
0230_20071003_001421_raw.all.mb56.gz 3.09MB Simrad multibeam vendor format
0231_20071003_011422_raw.all.mb56.gz 3.05MB Simrad multibeam vendor format
0232_20071003_021422_raw.all.mb56.gz 2.94MB Simrad multibeam vendor format
0233_20071003_031423_raw.all.mb56.gz 3.03MB Simrad multibeam vendor format
0234_20071003_041423_raw.all.mb56.gz 3.03MB Simrad multibeam vendor format
0235_20071003_051423_raw.all.mb56.gz 3.08MB Simrad multibeam vendor format
0236_20071003_061424_raw.all.mb56.gz 3.01MB Simrad multibeam vendor format
0237_20071003_071424_raw.all.mb56.gz 2.99MB Simrad multibeam vendor format
0238_20071003_081425_raw.all.mb56.gz 2.97MB Simrad multibeam vendor format
0239_20071003_091425_raw.all.mb56.gz 2.93MB Simrad multibeam vendor format
0240_20071003_101425_raw.all.mb56.gz 2.95MB Simrad multibeam vendor format
0241_20071003_111426_raw.all.mb56.gz 2.99MB Simrad multibeam vendor format
0242_20071003_121426_raw.all.mb56.gz 2.98MB Simrad multibeam vendor format
0243_20071003_131427_raw.all.mb56.gz 2.98MB Simrad multibeam vendor format
0244_20071003_141427_raw.all.mb56.gz 3.01MB Simrad multibeam vendor format
0245_20071003_151428_raw.all.mb56.gz 3.07MB Simrad multibeam vendor format
0246_20071003_161428_raw.all.mb56.gz 3.02MB Simrad multibeam vendor format
0247_20071003_171428_raw.all.mb56.gz 3.00MB Simrad multibeam vendor format
0248_20071003_181429_raw.all.mb56.gz 2.97MB Simrad multibeam vendor format
0249_20071003_191429_raw.all.mb56.gz 3.04MB Simrad multibeam vendor format
0250_20071003_201430_raw.all.mb56.gz 3.01MB Simrad multibeam vendor format
0251_20071003_211430_raw.all.mb56.gz 2.97MB Simrad multibeam vendor format
0252_20071003_221430_raw.all.mb56.gz 3.02MB Simrad multibeam vendor format
0253_20071003_231431_raw.all.mb56.gz 3.05MB Simrad multibeam vendor format
0254_20071004_001431_raw.all.mb56.gz 3.00MB Simrad multibeam vendor format
0255_20071004_011432_raw.all.mb56.gz 3.02MB Simrad multibeam vendor format
0256_20071004_021432_raw.all.mb56.gz 3.06MB Simrad multibeam vendor format
0257_20071004_031432_raw.all.mb56.gz 2.99MB Simrad multibeam vendor format
0258_20071004_041433_raw.all.mb56.gz 3.05MB Simrad multibeam vendor format
0259_20071004_051433_raw.all.mb56.gz 3.05MB Simrad multibeam vendor format
0260_20071004_061434_raw.all.mb56.gz 0.64MB Simrad multibeam vendor format
0261_20071004_062737_raw.all.mb56.gz 0.53MB Simrad multibeam vendor format
0262_20071004_070617_raw.all.mb56.gz 3.01MB Simrad multibeam vendor format
0263_20071004_080618_raw.all.mb56.gz 2.92MB Simrad multibeam vendor format
0264_20071004_090618_raw.all.mb56.gz 2.97MB Simrad multibeam vendor format
0265_20071004_100619_raw.all.mb56.gz 3.04MB Simrad multibeam vendor format
0266_20071004_110619_raw.all.mb56.gz 3.03MB Simrad multibeam vendor format
0267_20071004_120620_raw.all.mb56.gz 3.02MB Simrad multibeam vendor format
0268_20071004_130620_raw.all.mb56.gz 2.98MB Simrad multibeam vendor format
0269_20071004_140620_raw.all.mb56.gz 3.05MB Simrad multibeam vendor format
0270_20071004_150621_raw.all.mb56.gz 2.96MB Simrad multibeam vendor format
0271_20071004_160621_raw.all.mb56.gz 2.98MB Simrad multibeam vendor format
0272_20071004_170622_raw.all.mb56.gz 2.96MB Simrad multibeam vendor format
0273_20071004_180622_raw.all.mb56.gz 2.98MB Simrad multibeam vendor format
0274_20071004_190622_raw.all.mb56.gz 2.96MB Simrad multibeam vendor format
0275_20071004_200623_raw.all.mb56.gz 2.94MB Simrad multibeam vendor format
0276_20071004_210623_raw.all.mb56.gz 2.94MB Simrad multibeam vendor format
0277_20071004_220624_raw.all.mb56.gz 2.95MB Simrad multibeam vendor format
0278_20071004_230624_raw.all.mb56.gz 2.94MB Simrad multibeam vendor format
0279_20071005_000625_raw.all.mb56.gz 2.92MB Simrad multibeam vendor format
0280_20071005_010625_raw.all.mb56.gz 3.01MB Simrad multibeam vendor format
0281_20071005_020625_raw.all.mb56.gz 2.94MB Simrad multibeam vendor format
0282_20071005_030626_raw.all.mb56.gz 3.24MB Simrad multibeam vendor format
0283_20071005_040626_raw.all.mb56.gz 3.01MB Simrad multibeam vendor format
0284_20071005_050627_raw.all.mb56.gz 2.96MB Simrad multibeam vendor format
0285_20071005_060627_raw.all.mb56.gz 2.86MB Simrad multibeam vendor format
0286_20071005_070627_raw.all.mb56.gz 2.82MB Simrad multibeam vendor format
0287_20071005_080628_raw.all.mb56.gz 2.82MB Simrad multibeam vendor format
0288_20071005_090628_raw.all.mb56.gz 2.83MB Simrad multibeam vendor format
0289_20071005_100629_raw.all.mb56.gz 2.80MB Simrad multibeam vendor format
0290_20071005_110629_raw.all.mb56.gz 3.11MB Simrad multibeam vendor format
0291_20071005_120630_raw.all.mb56.gz 3.06MB Simrad multibeam vendor format
0292_20071005_130630_raw.all.mb56.gz 2.83MB Simrad multibeam vendor format
0293_20071005_140630_raw.all.mb56.gz 2.82MB Simrad multibeam vendor format
0294_20071005_150631_raw.all.mb56.gz 2.85MB Simrad multibeam vendor format
0295_20071005_160631_raw.all.mb56.gz 2.84MB Simrad multibeam vendor format
0296_20071005_170632_raw.all.mb56.gz 2.81MB Simrad multibeam vendor format
0297_20071005_180632_raw.all.mb56.gz 2.86MB Simrad multibeam vendor format
0298_20071005_190633_raw.all.mb56.gz 2.84MB Simrad multibeam vendor format
0299_20071005_200633_raw.all.mb56.gz 2.86MB Simrad multibeam vendor format
0300_20071005_210633_raw.all.mb56.gz 2.84MB Simrad multibeam vendor format
0301_20071005_220634_raw.all.mb56.gz 2.87MB Simrad multibeam vendor format
0302_20071005_230634_raw.all.mb56.gz 2.81MB Simrad multibeam vendor format
0303_20071006_000635_raw.all.mb56.gz 2.81MB Simrad multibeam vendor format
0304_20071006_010635_raw.all.mb56.gz 2.97MB Simrad multibeam vendor format
0305_20071006_020635_raw.all.mb56.gz 2.91MB Simrad multibeam vendor format
0306_20071006_030636_raw.all.mb56.gz 2.81MB Simrad multibeam vendor format
0307_20071006_040636_raw.all.mb56.gz 2.80MB Simrad multibeam vendor format
0308_20071006_050637_raw.all.mb56.gz 2.95MB Simrad multibeam vendor format
0309_20071006_060637_raw.all.mb56.gz 2.86MB Simrad multibeam vendor format
0310_20071006_070637_raw.all.mb56.gz 2.75MB Simrad multibeam vendor format
0311_20071006_080638_raw.all.mb56.gz 2.75MB Simrad multibeam vendor format
0312_20071006_090638_raw.all.mb56.gz 2.74MB Simrad multibeam vendor format
0313_20071006_100639_raw.all.mb56.gz 2.75MB Simrad multibeam vendor format
0314_20071006_110639_raw.all.mb56.gz 2.76MB Simrad multibeam vendor format
0315_20071006_120639_raw.all.mb56.gz 2.71MB Simrad multibeam vendor format
0316_20071006_130640_raw.all.mb56.gz 2.76MB Simrad multibeam vendor format
0317_20071006_140640_raw.all.mb56.gz 2.74MB Simrad multibeam vendor format
0318_20071006_150641_raw.all.mb56.gz 2.73MB Simrad multibeam vendor format
0319_20071006_160641_raw.all.mb56.gz 2.73MB Simrad multibeam vendor format
0320_20071006_170641_raw.all.mb56.gz 2.68MB Simrad multibeam vendor format
0321_20071006_180642_raw.all.mb56.gz 2.68MB Simrad multibeam vendor format
0322_20071006_190642_raw.all.mb56.gz 2.72MB Simrad multibeam vendor format
0323_20071006_200643_raw.all.mb56.gz 2.71MB Simrad multibeam vendor format
0324_20071006_210643_raw.all.mb56.gz 2.73MB Simrad multibeam vendor format
0325_20071006_220643_raw.all.mb56.gz 2.83MB Simrad multibeam vendor format
0326_20071006_230644_raw.all.mb56.gz 2.85MB Simrad multibeam vendor format
0327_20071007_000644_raw.all.mb56.gz 2.80MB Simrad multibeam vendor format
0328_20071007_010645_raw.all.mb56.gz 2.74MB Simrad multibeam vendor format
0329_20071007_020645_raw.all.mb56.gz 2.65MB Simrad multibeam vendor format
0330_20071007_030645_raw.all.mb56.gz 2.79MB Simrad multibeam vendor format
0331_20071007_040646_raw.all.mb56.gz 2.76MB Simrad multibeam vendor format
0332_20071007_050646_raw.all.mb56.gz 2.69MB Simrad multibeam vendor format
0333_20071007_060647_raw.all.mb56.gz 2.73MB Simrad multibeam vendor format
0334_20071007_070647_raw.all.mb56.gz 2.71MB Simrad multibeam vendor format
0335_20071007_080647_raw.all.mb56.gz 2.71MB Simrad multibeam vendor format
0336_20071007_090648_raw.all.mb56.gz 2.85MB Simrad multibeam vendor format
0337_20071007_100648_raw.all.mb56.gz 2.73MB Simrad multibeam vendor format
0338_20071007_110648_raw.all.mb56.gz 2.82MB Simrad multibeam vendor format
0339_20071007_120649_raw.all.mb56.gz 2.88MB Simrad multibeam vendor format
0340_20071007_130649_raw.all.mb56.gz 2.70MB Simrad multibeam vendor format
0341_20071007_140650_raw.all.mb56.gz 2.67MB Simrad multibeam vendor format
0342_20071007_150650_raw.all.mb56.gz 2.70MB Simrad multibeam vendor format
0343_20071007_160650_raw.all.mb56.gz 2.68MB Simrad multibeam vendor format
0344_20071007_170651_raw.all.mb56.gz 2.68MB Simrad multibeam vendor format
0345_20071007_180651_raw.all.mb56.gz 2.67MB Simrad multibeam vendor format
0346_20071007_190652_raw.all.mb56.gz 2.69MB Simrad multibeam vendor format
0347_20071007_200652_raw.all.mb56.gz 2.67MB Simrad multibeam vendor format
0348_20071007_210652_raw.all.mb56.gz 2.67MB Simrad multibeam vendor format
0349_20071007_220653_raw.all.mb56.gz 2.68MB Simrad multibeam vendor format
0350_20071007_230653_raw.all.mb56.gz 2.73MB Simrad multibeam vendor format
0351_20071008_000654_raw.all.mb56.gz 2.79MB Simrad multibeam vendor format
0352_20071008_010654_raw.all.mb56.gz 2.93MB Simrad multibeam vendor format
0353_20071008_020655_raw.all.mb56.gz 2.91MB Simrad multibeam vendor format
0354_20071008_030655_raw.all.mb56.gz 0.53MB Simrad multibeam vendor format
0355_20071008_031826_raw.all.mb56.gz 2.85MB Simrad multibeam vendor format
0356_20071008_041826_raw.all.mb56.gz 2.77MB Simrad multibeam vendor format
0357_20071008_051826_raw.all.mb56.gz 2.81MB Simrad multibeam vendor format
0358_20071008_061827_raw.all.mb56.gz 2.80MB Simrad multibeam vendor format
0359_20071008_071827_raw.all.mb56.gz 2.76MB Simrad multibeam vendor format
0360_20071008_081828_raw.all.mb56.gz 2.77MB Simrad multibeam vendor format
0361_20071008_091828_raw.all.mb56.gz 2.74MB Simrad multibeam vendor format
0362_20071008_101828_raw.all.mb56.gz 2.78MB Simrad multibeam vendor format
0363_20071008_111829_raw.all.mb56.gz 2.82MB Simrad multibeam vendor format
0364_20071008_121829_raw.all.mb56.gz 2.81MB Simrad multibeam vendor format
0365_20071008_131830_raw.all.mb56.gz 2.81MB Simrad multibeam vendor format
0366_20071008_141830_raw.all.mb56.gz 2.80MB Simrad multibeam vendor format
0367_20071008_151830_raw.all.mb56.gz 2.82MB Simrad multibeam vendor format
0368_20071008_161831_raw.all.mb56.gz 2.82MB Simrad multibeam vendor format
0369_20071008_171831_raw.all.mb56.gz 2.81MB Simrad multibeam vendor format
0370_20071008_181832_raw.all.mb56.gz 2.80MB Simrad multibeam vendor format
0371_20071008_191832_raw.all.mb56.gz 2.84MB Simrad multibeam vendor format
0372_20071008_201832_raw.all.mb56.gz 2.83MB Simrad multibeam vendor format
0373_20071008_211833_raw.all.mb56.gz 2.77MB Simrad multibeam vendor format
0374_20071008_221833_raw.all.mb56.gz 2.81MB Simrad multibeam vendor format
0375_20071008_231834_raw.all.mb56.gz 2.77MB Simrad multibeam vendor format
0376_20071009_001834_raw.all.mb56.gz 2.91MB Simrad multibeam vendor format
0377_20071009_011834_raw.all.mb56.gz 3.15MB Simrad multibeam vendor format
0378_20071009_021835_raw.all.mb56.gz 3.14MB Simrad multibeam vendor format
0379_20071009_031835_raw.all.mb56.gz 3.09MB Simrad multibeam vendor format
0380_20071009_041836_raw.all.mb56.gz 3.13MB Simrad multibeam vendor format
0381_20071009_051836_raw.all.mb56.gz 3.04MB Simrad multibeam vendor format
0382_20071009_061836_raw.all.mb56.gz 3.16MB Simrad multibeam vendor format
0383_20071009_071837_raw.all.mb56.gz 2.77MB Simrad multibeam vendor format
0384_20071009_081837_raw.all.mb56.gz 2.73MB Simrad multibeam vendor format
0385_20071009_091838_raw.all.mb56.gz 2.68MB Simrad multibeam vendor format
0386_20071009_101838_raw.all.mb56.gz 2.87MB Simrad multibeam vendor format
0387_20071009_111838_raw.all.mb56.gz 2.48MB Simrad multibeam vendor format
0388_20071009_120759_raw.all.mb56.gz 3.03MB Simrad multibeam vendor format
0389_20071009_130759_raw.all.mb56.gz 2.97MB Simrad multibeam vendor format
0390_20071009_140759_raw.all.mb56.gz 3.04MB Simrad multibeam vendor format
0391_20071009_150800_raw.all.mb56.gz 3.05MB Simrad multibeam vendor format
0392_20071009_160800_raw.all.mb56.gz 3.03MB Simrad multibeam vendor format
0393_20071009_170801_raw.all.mb56.gz 2.72MB Simrad multibeam vendor format
0394_20071009_180801_raw.all.mb56.gz 2.71MB Simrad multibeam vendor format
0395_20071009_190801_raw.all.mb56.gz 2.68MB Simrad multibeam vendor format
0396_20071009_200802_raw.all.mb56.gz 2.85MB Simrad multibeam vendor format
0397_20071009_210802_raw.all.mb56.gz 3.03MB Simrad multibeam vendor format
0398_20071009_220803_raw.all.mb56.gz 2.99MB Simrad multibeam vendor format
0399_20071009_230803_raw.all.mb56.gz 3.01MB Simrad multibeam vendor format
0400_20071010_000803_raw.all.mb56.gz 3.02MB Simrad multibeam vendor format
0401_20071010_010804_raw.all.mb56.gz 2.91MB Simrad multibeam vendor format
0402_20071010_020804_raw.all.mb56.gz 2.89MB Simrad multibeam vendor format
0403_20071010_030805_raw.all.mb56.gz 2.67MB Simrad multibeam vendor format
0404_20071010_040805_raw.all.mb56.gz 2.70MB Simrad multibeam vendor format
0405_20071010_050805_raw.all.mb56.gz 2.73MB Simrad multibeam vendor format
0406_20071010_060806_raw.all.mb56.gz 2.92MB Simrad multibeam vendor format
0407_20071010_070806_raw.all.mb56.gz 2.92MB Simrad multibeam vendor format
0408_20071010_080807_raw.all.mb56.gz 2.92MB Simrad multibeam vendor format
0409_20071010_090807_raw.all.mb56.gz 2.93MB Simrad multibeam vendor format
0410_20071010_100807_raw.all.mb56.gz 2.95MB Simrad multibeam vendor format
0411_20071010_110808_raw.all.mb56.gz 2.99MB Simrad multibeam vendor format
0412_20071010_120808_raw.all.mb56.gz 2.74MB Simrad multibeam vendor format
0413_20071010_130809_raw.all.mb56.gz 2.72MB Simrad multibeam vendor format
0414_20071010_140809_raw.all.mb56.gz 2.72MB Simrad multibeam vendor format
0415_20071010_150809_raw.all.mb56.gz 2.87MB Simrad multibeam vendor format
0416_20071010_160810_raw.all.mb56.gz 2.70MB Simrad multibeam vendor format
0417_20071010_170810_raw.all.mb56.gz 2.75MB Simrad multibeam vendor format
0418_20071010_180811_raw.all.mb56.gz 2.76MB Simrad multibeam vendor format
0419_20071010_190811_raw.all.mb56.gz 2.71MB Simrad multibeam vendor format
0420_20071010_200811_raw.all.mb56.gz 2.75MB Simrad multibeam vendor format
0421_20071010_210812_raw.all.mb56.gz 2.73MB Simrad multibeam vendor format
0422_20071010_220812_raw.all.mb56.gz 2.71MB Simrad multibeam vendor format
0423_20071010_230813_raw.all.mb56.gz 2.72MB Simrad multibeam vendor format
0424_20071011_000813_raw.all.mb56.gz 2.72MB Simrad multibeam vendor format
0425_20071011_010813_raw.all.mb56.gz 2.69MB Simrad multibeam vendor format
0426_20071011_020814_raw.all.mb56.gz 2.82MB Simrad multibeam vendor format
0427_20071011_030814_raw.all.mb56.gz 2.77MB Simrad multibeam vendor format
0428_20071011_040815_raw.all.mb56.gz 296.2KB Simrad multibeam vendor format
0429_20071011_041455_raw.all.mb56.gz 2.90MB Simrad multibeam vendor format
0430_20071011_051456_raw.all.mb56.gz 2.73MB Simrad multibeam vendor format
0431_20071011_061456_raw.all.mb56.gz 2.93MB Simrad multibeam vendor format
0432_20071011_071457_raw.all.mb56.gz 3.00MB Simrad multibeam vendor format
0433_20071011_081457_raw.all.mb56.gz 2.98MB Simrad multibeam vendor format
0434_20071011_091457_raw.all.mb56.gz 3.00MB Simrad multibeam vendor format
0435_20071011_101458_raw.all.mb56.gz 2.95MB Simrad multibeam vendor format
0436_20071011_111458_raw.all.mb56.gz 2.64MB Simrad multibeam vendor format
0437_20071011_121459_raw.all.mb56.gz 2.65MB Simrad multibeam vendor format
0438_20071011_131459_raw.all.mb56.gz 2.63MB Simrad multibeam vendor format
0439_20071011_141459_raw.all.mb56.gz 2.64MB Simrad multibeam vendor format
0440_20071011_151500_raw.all.mb56.gz 2.61MB Simrad multibeam vendor format
0441_20071011_161500_raw.all.mb56.gz 2.74MB Simrad multibeam vendor format
0442_20071011_171501_raw.all.mb56.gz 2.72MB Simrad multibeam vendor format
0443_20071011_181501_raw.all.mb56.gz 2.72MB Simrad multibeam vendor format
0444_20071011_191501_raw.all.mb56.gz 2.76MB Simrad multibeam vendor format
0445_20071011_201502_raw.all.mb56.gz 2.74MB Simrad multibeam vendor format
0446_20071011_211502_raw.all.mb56.gz 2.84MB Simrad multibeam vendor format
0447_20071011_221503_raw.all.mb56.gz 2.77MB Simrad multibeam vendor format
0448_20071011_231503_raw.all.mb56.gz 2.77MB Simrad multibeam vendor format
0449_20071012_001503_raw.all.mb56.gz 2.71MB Simrad multibeam vendor format
0450_20071012_011504_raw.all.mb56.gz 2.83MB Simrad multibeam vendor format
0451_20071012_021504_raw.all.mb56.gz 2.83MB Simrad multibeam vendor format
0452_20071012_031505_raw.all.mb56.gz 2.71MB Simrad multibeam vendor format
0453_20071012_041505_raw.all.mb56.gz 2.73MB Simrad multibeam vendor format
0454_20071012_051505_raw.all.mb56.gz 2.71MB Simrad multibeam vendor format
0455_20071012_061506_raw.all.mb56.gz 2.70MB Simrad multibeam vendor format
0456_20071012_071506_raw.all.mb56.gz 2.73MB Simrad multibeam vendor format
0457_20071012_081507_raw.all.mb56.gz 2.73MB Simrad multibeam vendor format
0458_20071012_091507_raw.all.mb56.gz 2.72MB Simrad multibeam vendor format
0459_20071012_101507_raw.all.mb56.gz 2.73MB Simrad multibeam vendor format
0460_20071012_111508_raw.all.mb56.gz 2.69MB Simrad multibeam vendor format
0461_20071012_121508_raw.all.mb56.gz 2.68MB Simrad multibeam vendor format
0462_20071012_131509_raw.all.mb56.gz 2.72MB Simrad multibeam vendor format
0463_20071012_141509_raw.all.mb56.gz 2.69MB Simrad multibeam vendor format
0464_20071012_151509_raw.all.mb56.gz 2.66MB Simrad multibeam vendor format
0465_20071012_161510_raw.all.mb56.gz 2.64MB Simrad multibeam vendor format
0466_20071012_171510_raw.all.mb56.gz 2.69MB Simrad multibeam vendor format
0467_20071012_181510_raw.all.mb56.gz 2.66MB Simrad multibeam vendor format
0468_20071012_191511_raw.all.mb56.gz 2.89MB Simrad multibeam vendor format
0469_20071012_201511_raw.all.mb56.gz 2.67MB Simrad multibeam vendor format
0470_20071012_211512_raw.all.mb56.gz 2.66MB Simrad multibeam vendor format
0471_20071012_221512_raw.all.mb56.gz 2.65MB Simrad multibeam vendor format
0472_20071012_231512_raw.all.mb56.gz 2.66MB Simrad multibeam vendor format
0473_20071013_001513_raw.all.mb56.gz 2.68MB Simrad multibeam vendor format
0474_20071013_011513_raw.all.mb56.gz 2.69MB Simrad multibeam vendor format
0475_20071013_021514_raw.all.mb56.gz 2.67MB Simrad multibeam vendor format
0476_20071013_031514_raw.all.mb56.gz 2.66MB Simrad multibeam vendor format
0477_20071013_041515_raw.all.mb56.gz 2.67MB Simrad multibeam vendor format
0478_20071013_051515_raw.all.mb56.gz 2.68MB Simrad multibeam vendor format
0479_20071013_061515_raw.all.mb56.gz 2.67MB Simrad multibeam vendor format
0480_20071013_071516_raw.all.mb56.gz 2.69MB Simrad multibeam vendor format
0481_20071013_081516_raw.all.mb56.gz 2.69MB Simrad multibeam vendor format
0482_20071013_091517_raw.all.mb56.gz 2.74MB Simrad multibeam vendor format
0483_20071013_101517_raw.all.mb56.gz 2.74MB Simrad multibeam vendor format
0484_20071013_111517_raw.all.mb56.gz 2.69MB Simrad multibeam vendor format
0485_20071013_121518_raw.all.mb56.gz 2.72MB Simrad multibeam vendor format
0486_20071013_131518_raw.all.mb56.gz 2.71MB Simrad multibeam vendor format
0487_20071013_141519_raw.all.mb56.gz 2.85MB Simrad multibeam vendor format
0488_20071013_151519_raw.all.mb56.gz 2.71MB Simrad multibeam vendor format
0489_20071013_161519_raw.all.mb56.gz 2.70MB Simrad multibeam vendor format
0490_20071013_171520_raw.all.mb56.gz 2.71MB Simrad multibeam vendor format
0491_20071013_181520_raw.all.mb56.gz 2.67MB Simrad multibeam vendor format
0492_20071013_191521_raw.all.mb56.gz 2.71MB Simrad multibeam vendor format
0493_20071013_201521_raw.all.mb56.gz 2.70MB Simrad multibeam vendor format
0494_20071013_211521_raw.all.mb56.gz 2.70MB Simrad multibeam vendor format
0495_20071013_221522_raw.all.mb56.gz 2.71MB Simrad multibeam vendor format
0496_20071013_231522_raw.all.mb56.gz 2.73MB Simrad multibeam vendor format
0497_20071014_001523_raw.all.mb56.gz 2.76MB Simrad multibeam vendor format
0498_20071014_011523_raw.all.mb56.gz 2.81MB Simrad multibeam vendor format
0499_20071014_021523_raw.all.mb56.gz 2.84MB Simrad multibeam vendor format
0500_20071014_031524_raw.all.mb56.gz 2.79MB Simrad multibeam vendor format
0501_20071014_041524_raw.all.mb56.gz 2.73MB Simrad multibeam vendor format
0502_20071014_051525_raw.all.mb56.gz 2.75MB Simrad multibeam vendor format
0503_20071014_061525_raw.all.mb56.gz 2.72MB Simrad multibeam vendor format
0504_20071014_071525_raw.all.mb56.gz 2.69MB Simrad multibeam vendor format
0505_20071014_081526_raw.all.mb56.gz 2.67MB Simrad multibeam vendor format
0506_20071014_091526_raw.all.mb56.gz 2.69MB Simrad multibeam vendor format
0507_20071014_101526_raw.all.mb56.gz 2.67MB Simrad multibeam vendor format
0508_20071014_111527_raw.all.mb56.gz 2.65MB Simrad multibeam vendor format
0509_20071014_121527_raw.all.mb56.gz 2.67MB Simrad multibeam vendor format
0510_20071014_131528_raw.all.mb56.gz 2.67MB Simrad multibeam vendor format
0511_20071014_141528_raw.all.mb56.gz 2.66MB Simrad multibeam vendor format
0512_20071014_151528_raw.all.mb56.gz 2.68MB Simrad multibeam vendor format
0513_20071014_161529_raw.all.mb56.gz 2.66MB Simrad multibeam vendor format
0514_20071014_171529_raw.all.mb56.gz 2.80MB Simrad multibeam vendor format
0515_20071014_181530_raw.all.mb56.gz 2.72MB Simrad multibeam vendor format
0516_20071014_191530_raw.all.mb56.gz 2.76MB Simrad multibeam vendor format
0517_20071014_201530_raw.all.mb56.gz 2.71MB Simrad multibeam vendor format
0518_20071014_211531_raw.all.mb56.gz 2.66MB Simrad multibeam vendor format
0519_20071014_221531_raw.all.mb56.gz 2.66MB Simrad multibeam vendor format
0520_20071014_231532_raw.all.mb56.gz 2.65MB Simrad multibeam vendor format
0521_20071015_001532_raw.all.mb56.gz 2.64MB Simrad multibeam vendor format
0522_20071015_011532_raw.all.mb56.gz 2.65MB Simrad multibeam vendor format
0523_20071015_021533_raw.all.mb56.gz 2.65MB Simrad multibeam vendor format
0524_20071015_031533_raw.all.mb56.gz 2.66MB Simrad multibeam vendor format
0525_20071015_041534_raw.all.mb56.gz 2.63MB Simrad multibeam vendor format
0526_20071015_051534_raw.all.mb56.gz 2.62MB Simrad multibeam vendor format
0527_20071015_061534_raw.all.mb56.gz 2.60MB Simrad multibeam vendor format
0528_20071015_071535_raw.all.mb56.gz 2.59MB Simrad multibeam vendor format
0529_20071015_081535_raw.all.mb56.gz 2.61MB Simrad multibeam vendor format
0530_20071015_091535_raw.all.mb56.gz 2.61MB Simrad multibeam vendor format
0531_20071015_101536_raw.all.mb56.gz 2.60MB Simrad multibeam vendor format
0532_20071015_111536_raw.all.mb56.gz 2.60MB Simrad multibeam vendor format
0533_20071015_121537_raw.all.mb56.gz 2.58MB Simrad multibeam vendor format
0534_20071015_131537_raw.all.mb56.gz 2.59MB Simrad multibeam vendor format
0535_20071015_141537_raw.all.mb56.gz 2.59MB Simrad multibeam vendor format
0536_20071015_151538_raw.all.mb56.gz 2.56MB Simrad multibeam vendor format
0537_20071015_161538_raw.all.mb56.gz 2.57MB Simrad multibeam vendor format
0538_20071015_171539_raw.all.mb56.gz 2.73MB Simrad multibeam vendor format
0539_20071015_181539_raw.all.mb56.gz 2.65MB Simrad multibeam vendor format
0540_20071015_191539_raw.all.mb56.gz 2.70MB Simrad multibeam vendor format
0541_20071015_201540_raw.all.mb56.gz 2.58MB Simrad multibeam vendor format
0542_20071015_211540_raw.all.mb56.gz 2.55MB Simrad multibeam vendor format
0543_20071015_221541_raw.all.mb56.gz 2.57MB Simrad multibeam vendor format
0544_20071015_231541_raw.all.mb56.gz 2.57MB Simrad multibeam vendor format
0545_20071016_001541_raw.all.mb56.gz 2.58MB Simrad multibeam vendor format
0546_20071016_011542_raw.all.mb56.gz 2.57MB Simrad multibeam vendor format
0547_20071016_021542_raw.all.mb56.gz 2.54MB Simrad multibeam vendor format
0548_20071016_031543_raw.all.mb56.gz 2.55MB Simrad multibeam vendor format
0549_20071016_041543_raw.all.mb56.gz 2.37MB Simrad multibeam vendor format
0550_20071016_051543_raw.all.mb56.gz 2.45MB Simrad multibeam vendor format
0551_20071016_061029_raw.all.mb56.gz 2.78MB Simrad multibeam vendor format
0552_20071016_071029_raw.all.mb56.gz 2.39MB Simrad multibeam vendor format

Full Resolution Bathymetry (processed): 1

Files File Size Description
knox09rr.b93.mb164.gz 97.61MB NGDC binary hydrographic sounding format

Metadata Files: 1

Files File Size Description
KNOX09RR_Multibeam.xml NGDC created ISO metadata

Ancillary Files: 1

Files File Size Description
xbt.tar.gz 276.4KB Expendable Bathythermograph (XBT) data